EW8728 Weather Reports


Display with metric or nautical units.
time (UTC)temp
F
wind
direction
speed
MPH
gust
MPH
rain 1hr
in
rain 24hr
in
rain mn
in
humidity
%
barometer
mb
20190216053054 34 248 0.0 0.0 0.00 0.00 0.00 83 1031.1
20190216051605 34 248 0.0 0.0 0.00 0.00 0.00 81 1031.1
20190216050043 35 248 0.0 0.0 0.00 0.00 0.00 82 1030.9
20190216044532 34 248 0.0 0.0 0.00 0.00 0.00 83 1030.9
20190216043025 34 248 0.0 0.0 0.00 0.00 0.00 83 1031.0
20190216041552 35 248 0.0 0.0 0.00 0.00 0.00 84 1030.9
20190216040039 34 248 0.0 0.0 0.00 0.00 0.00 84 1030.9
20190216034540 34 248 0.0 0.0 0.00 0.00 0.00 84 1030.7
20190216033023 34 248 0.0 0.0 0.00 0.00 0.00 83 1030.6
20190216031533 35 248 0.0 0.0 0.00 0.00 0.00 83 1030.8
20190216030030 35 248 0.0 0.0 0.00 0.00 0.00 84 1030.8
20190216024534 34 248 0.0 0.0 0.00 0.00 0.00 84 1030.8
20190216023016 35 248 0.0 0.0 0.00 0.00 0.00 83 1030.8
20190216021525 36 248 0.0 0.0 0.00 0.00 0.00 83 1030.8
20190216020009 36 248 0.0 0.0 0.00 0.00 0.00 83 1031.0
20190216014511 36 248 0.0 0.0 0.00 0.00 0.00 83 1031.2
20190216013010 36 248 0.0 0.0 0.00 0.00 0.00 84 1031.3
20190216011532 35 248 0.0 0.0 0.00 0.00 0.00 85 1031.3
20190216010012 36 248 0.0 0.0 0.00 0.00 0.00 84 1031.1
20190216004516 36 248 0.0 0.0 0.00 0.00 0.00 83 1031.2
20190216003003 36 248 0.0 0.0 0.00 0.00 0.00 83 1031.2
20190216001509 36 248 0.0 0.0 0.00 0.00 0.00 84 1031.1
20190215234653 36 248 0.0 0.0 0.00 0.00 0.00 83 1031.2
20190215233119 37 248 0.0 0.0 0.00 0.00 0.00 82 1031.2
20190215231656 37 248 0.0 0.0 0.00 0.00 0.00 82 1031.2
20190215230147 37 248 0.0 0.0 0.00 0.00 0.00 82 1031.1
20190215224634 37 248 0.0 0.0 0.00 0.00 0.00 82 1030.9
20190215223150 37 248 0.0 0.0 0.00 0.00 0.00 81 1030.8
20190215221747 39 248 0.0 0.0 0.00 0.00 0.00 79 1030.7
20190215220149 39 248 0.0 0.0 0.00 0.00 0.00 80 1030.8
20190215214633 38 248 0.0 0.0 0.00 0.00 0.00 80 1030.8
20190215213157 38 248 0.0 0.0 0.00 0.00 0.00 80 1030.9
20190215211652 39 248 0.0 0.0 0.00 0.00 0.00 78 1030.9
20190215210156 38 248 0.0 0.0 0.00 0.00 0.00 79 1030.9
20190215204621 39 248 0.0 0.0 0.00 0.00 0.00 78 1031.0
20190215203134 39 248 0.0 0.0 0.00 0.00 0.00 79 1031.0
20190215201712 39 248 0.0 0.0 0.00 0.00 0.00 77 1031.0
20190215200110 40 248 0.0 0.0 0.00 0.00 0.00 74 1031.0
20190215194622 40 248 0.0 0.0 0.00 0.00 0.00 77 1031.0
20190215193113 40 248 0.0 0.0 0.00 0.00 0.00 76 1031.0
20190215191611 41 248 0.0 0.0 0.00 0.00 0.00 74 1031.1
20190215190206 41 248 0.0 0.0 0.00 0.00 0.00 72 1031.2
20190215184624 42 248 0.0 2.0 0.00 0.00 0.00 72 1031.3
20190215183120 42 248 0.0 0.0 0.00 0.00 0.00 72 1031.3
20190215181606 41 248 0.0 0.0 0.00 0.00 0.00 74 1031.4
20190215180141 42 248 0.0 0.0 0.00 0.00 0.00 72 1031.4
20190215174553 43 248 0.0 0.0 0.00 0.00 0.00 71 1031.5
20190215173047 44 248 0.0 0.0 0.00 0.00 0.00 71 1031.4
20190215171647 44 248 0.0 0.0 0.00 0.00 0.00 70 1031.4
20190215170126 45 248 0.0 1.0 0.00 0.00 0.00 66 1031.2
20190215164611 47 248 0.0 0.0 0.00 0.00 0.00 63 1031.2
20190215163123 49 248 0.0 1.0 0.00 0.00 0.00 59 1031.1
20190215161603 50 248 0.0 2.0 0.00 0.00 0.00 58 1031.1
20190215160125 51 255 1.0 3.0 0.00 0.00 0.00 56 1031.2
20190215154631 52 233 1.0 3.0 0.00 0.00 0.00 53 1031.2
20190215153114 52 269 0.0 2.0 0.00 0.00 0.00 54 1031.4
20190215151559 53 269 0.0 3.0 0.00 0.00 0.00 54 1031.4
20190215150054 53 213 0.0 3.0 0.00 0.00 0.00 50 1031.6
20190215144602 52 288 0.0 3.0 0.00 0.00 0.00 51 1031.6
20190215143138 53 260 0.0 4.0 0.00 0.00 0.00 51 1031.8
20190215141542 53 222 1.0 3.0 0.00 0.00 0.00 51 1031.8
20190215140028 53 234 1.0 4.0 0.00 0.00 0.00 53 1031.9
20190215134551 52 209 2.0 4.0 0.00 0.00 0.00 53 1032.0
20190215133052 52 217 1.0 4.0 0.00 0.00 0.00 55 1032.1
20190215131542 52 222 0.0 5.0 0.00 0.00 0.00 59 1032.3
20190215130021 51 308 1.0 3.0 0.00 0.00 0.00 59 1032.4
20190215124516 51 214 1.0 4.0 0.00 0.00 0.00 59 1032.6
20190215123038 50 288 0.0 4.0 0.00 0.00 0.00 61 1032.8
20190215121505 50 269 1.0 3.0 0.00 0.00 0.00 59 1033.1
20190215120008 50 275 1.0 4.0 0.00 0.00 0.00 62 1033.2
20190215114717 49 267 0.0 3.0 0.00 0.00 0.00 65 1033.4
20190215113243 48 221 1.0 2.0 0.00 0.00 0.00 64 1033.6
20190215111616 47 196 0.0 2.0 0.00 0.00 0.00 66 1033.8
20190215110203 45 196 0.0 3.0 0.00 0.00 0.00 67 1034.0
20190215104640 46 148 1.0 3.0 0.00 0.00 0.00 70 1034.2
20190215103114 44 56 0.0 2.0 0.00 0.00 0.00 71 1034.4
20190215101642 43 55 0.0 0.0 0.00 0.00 0.00 72 1034.4
20190215100037 41 55 0.0 0.0 0.00 0.00 0.00 74 1034.4
20190215094602 40 55 0.0 0.0 0.00 0.00 0.00 79 1034.4
20190215093106 39 55 0.0 0.0 0.00 0.00 0.00 80 1034.5
20190215091611 38 55 0.0 0.0 0.00 0.00 0.00 82 1034.6
20190215090042 37 55 0.0 1.0 0.00 0.00 0.00 83 1034.6
20190215084554 36 55 0.0 0.0 0.00 0.00 0.00 84 1034.7
20190215083031 35 55 0.0 0.0 0.00 0.00 0.00 87 1034.7
20190215081524 34 55 0.0 0.0 0.00 0.00 0.00 88 1034.6
20190215080034 33 55 0.0 0.0 0.00 0.00 0.00 89 1034.7
20190215074555 32 55 0.0 0.0 0.00 0.00 0.00 90 1034.8
20190215073039 31 55 0.0 0.0 0.00 0.00 0.00 89 1034.6
20190215071532 31 55 0.0 0.0 0.00 0.00 0.00 89 1034.5
20190215070030 31 55 0.0 0.0 0.00 0.00 0.00 89 1034.4
20190215064513 31 55 0.0 0.0 0.00 0.00 0.00 90 1034.2
20190215063029 30 55 0.0 0.0 0.00 0.00 0.00 89 1034.2
20190215061512 31 55 0.0 0.0 0.00 0.00 0.00 88 1034.2
20190215060027 31 55 0.0 0.0 0.00 0.00 0.00 88 1034.1
20190215054523 32 55 0.0 0.0 0.00 0.00 0.00 89 1034.0